Zurück zum Katalog

GLOBALSTAR M060

AktivKommunikationLEO
NORAD 26083·PAYLOAD·🇺🇸 United States

Gestartet Feb 8, 2000 von Cape Canaveral Space Force Station

Loading…

Nächste Überflüge (nächste 24 Stunden)

TLE

AktuellSource: Space-Track

Epoche: Sep 14, 2026, 08:24 UTC

1 26083U 00008C   26257.35008148 -.00000060  00000-0  31241-3 0  9999
2 26083  51.9998 224.4584 0003444 335.0248 191.4290 12.17681781207693

Verfolge GLOBALSTAR M060 in Echtzeit mit AllMySat

Download on the App Store